Lorain / Elyria, OH

2:08 AM EDT on May 25, 2018 (GMT -0400)
Lorain County Regional

Weather History for KLPR - January, 2013

Change the Weather History Date:

Monday, January 7, 2013

  Actual Average (WUND) Record (WUND)
Temperature  
Mean Temperature 32 °F -  
Max Temperature 35 °F - - (-1)
Min Temperature 28 °F - - (-1)
Degree Days  
Heating Degree Days 34    
Moisture  
Dew Point 24 °F    
Average Humidity 75    
Maximum Humidity 85    
Minimum Humidity 61    
Precipitation  
Precipitation 0.00 in - - ()
Sea Level Pressure  
Sea Level Pressure 30.34 in    
Wind  
Wind Speed 9 mph (WSW)    
Max Wind Speed 16 mph    
Max Gust Speed -    
Visibility 6 miles    
Events      
Averages and records for this station are not official NWS values.
T = Trace of Precipitation, MM = Missing Value Source: NWS Daily Summary

Daily Weather History Graph

Daily Weather History Graph

Search for Another Location

Airport or City:

Astronomy

Jan. 07, 2013 Rise Set
Actual Time 7:54 AM EST 5:15 PM EST
Civil Twilight 7:23 AM EST 5:46 PM EST
Nautical Twilight 6:49 AM EST 6:21 PM EST
Astronomical Twilight 6:15 AM EST 6:54 PM EST
Moon 3:16 AM EST (1/7) 1:26 PM EST (1/7)
Length of Visible Light 10h 23m
Length of Day
9h 21m
Waning Crescent, 23% of the Moon is Illuminated
Jan 7
Waning Crescent
Jan 11
New
Jan 18
First Quarter
Jan 26
Full
Feb 3
Last Quarter

Hourly Weather History & Observations

Time (EST) Temp. Windchill Dew Point Humidity Pressure Visibility Wind Dir Wind Speed Gust Speed Precip Events Conditions
12:24 AM 30.2 °F 22.6 °F 24.8 °F 80% 30.26 in 5.0 mi West 8.1 mph - N/A   Haze
12:53 AM 30.0 °F 23.2 °F 25.0 °F 82% 30.30 in 5.0 mi West 6.9 mph - N/A   Haze
1:53 AM 30.9 °F 24.3 °F 25.0 °F 79% 30.32 in 5.0 mi West 6.9 mph - N/A   Haze
2:41 AM 30.2 °F 21.9 °F 24.8 °F 80% 30.31 in 5.0 mi WNW 9.2 mph - N/A   Haze
2:53 AM 30.9 °F 23.5 °F 25.0 °F 79% 30.33 in 5.0 mi WNW 8.1 mph - N/A   Haze
3:53 AM 30.0 °F 25.2 °F 25.0 °F 82% 30.35 in 5.0 mi WNW 4.6 mph - N/A   Haze
4:10 AM 30.2 °F 25.4 °F 24.8 °F 80% 30.32 in 5.0 mi WNW 4.6 mph - N/A   Haze
4:53 AM 28.9 °F 22.8 °F 25.0 °F 85% 30.35 in 4.0 mi WSW 5.8 mph - N/A   Overcast
5:53 AM 30.0 °F 26.5 °F 25.0 °F 82% 30.38 in 5.0 mi West 3.5 mph - N/A   Haze
6:53 AM 30.0 °F 25.2 °F 25.0 °F 82% 30.39 in 5.0 mi WSW 4.6 mph - N/A   Haze
7:53 AM 30.0 °F 23.2 °F 25.0 °F 82% 30.42 in 5.0 mi WSW 6.9 mph - N/A   Haze
8:53 AM 28.9 °F 21.9 °F 24.1 °F 82% 30.44 in 3.0 mi WSW 6.9 mph - N/A   Haze
9:53 AM 30.0 °F 22.4 °F 25.0 °F 82% 30.45 in 4.0 mi WSW 8.1 mph - N/A   Haze
10:53 AM 30.9 °F 22.8 °F 25.0 °F 79% 30.47 in 5.0 mi WSW 9.2 mph - N/A   Haze
11:53 AM 33.1 °F 24.9 °F 24.1 °F 70% 30.43 in 6.0 mi SW 10.4 mph - N/A   Haze
12:53 PM 34.0 °F 25.0 °F 23.0 °F 64% 30.40 in 8.0 mi SW 12.7 mph - N/A   Clear
1:53 PM 34.0 °F 23.8 °F 23.0 °F 64% 30.37 in 8.0 mi SW 16.1 mph - N/A   Clear
2:53 PM 35.1 °F 25.2 °F 23.0 °F 61% 30.35 in 8.0 mi SW 16.1 mph - N/A   Clear
3:53 PM 35.1 °F 25.9 °F 23.0 °F 61% 30.35 in 8.0 mi SW 13.8 mph - N/A   Clear
4:53 PM 34.0 °F 25.5 °F 21.9 °F 61% 30.32 in 7.0 mi SSW 11.5 mph - N/A   Clear
6:53 PM 30.9 °F 21.7 °F 21.0 °F 67% 30.31 in 8.0 mi SSW 11.5 mph - N/A   Clear
7:53 PM 30.0 °F 20.5 °F 21.0 °F 69% 30.30 in 8.0 mi SSW 11.5 mph - N/A   Clear
8:53 PM 30.0 °F 19.1 °F 21.0 °F 69% 30.27 in 8.0 mi South 15.0 mph - N/A   Clear
9:53 PM 28.9 °F 18.6 °F 21.0 °F 72% 30.25 in 7.0 mi South 12.7 mph - N/A   Clear
10:53 PM 28.9 °F 18.6 °F 21.9 °F 75% 30.24 in 7.0 mi South 12.7 mph - N/A   Clear
11:53 PM 28.0 °F 20.0 °F 21.0 °F 75% 30.25 in 7.0 mi South 8.1 mph - N/A   Clear